contact:dominique.lefevre@mio.osupytheas.fr, maurice.libes@osupytheas.fr, didier.mallarino@osupytheas.fr
Project:EMSO http://www.emso-fr.org/EMSO-France
Depth: 2436.0 m
Title:EMSO Ligure Ouest : Data MII capteur AQUADOPP
Date,Latitude,Longitude,X_East,Y_North,Z_Up,Amplitude_X,Amplitude_Y,Amplitude_Z,Batterie,SoundSpeed,Heading,Pitch,Roll,Pressure,TIS,Speed,Direction
, degrees North, degrees East, m.s-1, m.s-1,m.s-1, 1, 1, 1, Volt, m.s-1, degree, degree, degree, dbar, degree_C, m.s-1, degree
2022-01-29T00:04:03,42.805,6.029,0.013,-0.031,0.021,106.0,105.0,103.0,13.4,1505.2,324.0,-0.7,1.8,2470.412,13.28,0.033,157.3
2022-01-29T00:07:03,42.805,6.029,0.024,-0.017,0.024,105.0,104.0,103.0,13.3,1505.2,326.1,-0.8,1.8,2470.401,13.28,0.029,125.3
2022-01-29T00:10:03,42.805,6.029,0.005,-0.02,-0.026,105.0,103.0,103.0,13.4,1505.2,328.9,-0.8,1.8,2470.435,13.28,0.02,166.0
2022-01-29T00:13:03,42.805,6.029,0.015,-0.041,-0.007,105.0,105.0,103.0,13.4,1505.2,327.2,-0.7,1.8,2470.359,13.28,0.043,159.9
2022-01-29T00:16:03,42.805,6.029,0.025,-0.006,-0.011,107.0,104.0,102.0,13.3,1505.2,326.0,-0.8,1.8,2470.394,13.28,0.025,103.5
2022-01-29T00:19:03,42.805,6.029,0.035,-0.021,-0.003,105.0,105.0,103.0,13.3,1505.2,330.1,-0.8,1.8,2470.386,13.28,0.04,121.0
2022-01-29T00:22:03,42.805,6.029,0.02,-0.002,0.01,106.0,107.0,102.0,13.3,1505.2,329.2,-0.8,1.8,2470.402,13.28,0.02,95.7
2022-01-29T00:25:03,42.805,6.029,0.018,-0.026,-0.001,105.0,105.0,103.0,13.3,1505.2,329.0,-0.8,1.8,2470.385,13.28,0.031,145.3
2022-01-29T00:28:03,42.805,6.029,0.0,-0.015,0.017,105.0,106.0,104.0,13.4,1505.2,328.5,-0.7,1.8,2470.354,13.28,0.015,180.0
2022-01-29T00:31:03,42.805,6.029,0.022,-0.023,-0.012,105.0,105.0,103.0,13.3,1505.2,324.1,-0.7,1.8,2470.361,13.28,0.031,136.3
2022-01-29T00:34:03,42.805,6.029,0.023,-0.029,-0.008,106.0,104.0,103.0,13.4,1505.2,323.4,-0.7,1.8,2470.324,13.28,0.037,141.6
2022-01-29T00:37:03,42.805,6.029,0.041,-0.007,-0.017,105.0,103.0,103.0,13.4,1505.2,324.2,-0.8,1.8,2470.329,13.28,0.041,99.7
2022-01-29T00:40:03,42.805,6.029,0.008,-0.021,-0.017,104.0,104.0,103.0,13.4,1505.2,329.0,-0.8,1.8,2470.321,13.28,0.022,159.1
2022-01-29T00:43:03,42.805,6.029,0.028,-0.011,-0.028,105.0,104.0,103.0,13.4,1505.2,323.4,-0.8,1.8,2470.33,13.28,0.03,111.4
2022-01-29T00:46:03,42.805,6.029,0.017,0.001,0.009,107.0,105.0,102.0,13.3,1505.2,326.1,-0.8,1.8,2470.339,13.28,0.017,86.6
2022-01-29T00:49:03,42.805,6.029,0.013,-0.03,-0.033,104.0,104.0,103.0,13.3,1505.2,330.0,-0.8,1.8,2470.365,13.28,0.032,156.6
2022-01-29T00:52:03,42.805,6.029,0.022,-0.019,0.01,104.0,104.0,103.0,13.4,1505.2,326.4,-0.7,1.8,2470.368,13.28,0.029,130.8
2022-01-29T00:55:03,42.805,6.029,0.018,-0.017,0.016,105.0,105.0,104.0,13.4,1505.2,327.4,-0.7,1.8,2470.322,13.28,0.024,133.4
2022-01-29T00:58:03,42.805,6.029,0.02,-0.032,-0.004,104.0,105.0,103.0,13.3,1505.2,327.1,-0.7,1.8,2470.424,13.28,0.037,148.0
2022-01-29T01:04:03,42.805,6.029,0.018,-0.007,0.003,107.0,107.0,105.0,13.3,1505.2,330.0,-0.8,1.8,2470.729,13.28,0.019,111.2
2022-01-29T01:07:03,42.805,6.029,0.013,-0.014,0.02,106.0,105.0,103.0,13.4,1505.2,330.9,-0.8,1.8,2470.206,13.28,0.019,137.1
2022-01-29T01:10:03,42.805,6.029,0.001,-0.02,-0.029,105.0,105.0,103.0,13.3,1505.2,329.2,-0.7,1.8,2470.286,13.28,0.02,177.1
2022-01-29T01:13:03,42.805,6.029,0.029,-0.018,-0.012,105.0,104.0,102.0,13.3,1505.2,326.2,-0.8,1.8,2470.303,13.28,0.034,121.8
2022-01-29T01:16:03,42.805,6.029,0.034,-0.02,0.006,105.0,103.0,103.0,13.4,1505.2,329.4,-0.7,1.9,2470.272,13.28,0.039,120.5
2022-01-29T01:19:03,42.805,6.029,0.017,-0.029,-0.027,104.0,104.0,103.0,13.4,1505.2,324.1,-0.8,1.8,2470.316,13.28,0.033,149.6
2022-01-29T01:22:03,42.805,6.029,0.016,-0.03,-0.008,105.0,104.0,103.0,13.4,1505.2,325.1,-0.8,1.8,2470.361,13.28,0.034,151.9
2022-01-29T01:25:03,42.805,6.029,0.022,-0.031,-0.006,103.0,104.0,102.0,13.4,1505.2,327.9,-0.7,1.8,2470.592,13.28,0.038,144.6
2022-01-29T01:28:03,42.805,6.029,0.03,-0.03,-0.028,105.0,104.0,103.0,13.4,1505.2,331.1,-0.8,1.8,2470.604,13.28,0.042,135.0
2022-01-29T01:31:03,42.805,6.029,0.021,-0.021,-0.035,105.0,104.0,102.0,13.3,1505.2,326.0,-0.8,1.8,2470.467,13.28,0.029,135.0
2022-01-29T01:34:03,42.805,6.029,0.005,-0.02,-0.024,104.0,105.0,103.0,13.4,1505.2,324.7,-0.7,1.8,2470.536,13.28,0.02,166.0
2022-01-29T01:37:03,42.805,6.029,0.021,-0.006,0.003,105.0,105.0,103.0,13.3,1505.2,323.7,-0.8,1.8,2470.365,13.28,0.021,105.9
2022-01-29T01:40:03,42.805,6.029,0.04,-0.014,-0.011,106.0,104.0,102.0,13.3,1505.2,324.7,-0.8,1.8,2470.708,13.28,0.042,109.3
2022-01-29T01:43:03,42.805,6.029,0.025,-0.019,0.015,105.0,104.0,102.0,13.3,1505.2,328.9,-0.8,1.8,2471.131,13.28,0.031,127.2
2022-01-29T01:46:03,42.805,6.029,0.016,-0.02,-0.003,104.0,104.0,102.0,13.3,1505.2,328.5,-0.8,1.8,2471.631,13.28,0.025,141.3
2022-01-29T01:49:03,42.805,6.029,0.021,-0.007,0.007,105.0,105.0,103.0,13.4,1505.2,327.9,-0.7,1.8,2471.904,13.28,0.022,108.4
2022-01-29T01:52:03,42.805,6.029,0.017,-0.028,-0.001,105.0,104.0,102.0,13.4,1505.2,329.1,-0.8,1.8,2471.749,13.28,0.032,148.7
2022-01-29T01:55:03,42.805,6.029,0.016,-0.03,-0.004,105.0,104.0,103.0,13.4,1505.2,328.9,-0.8,1.8,2471.798,13.28,0.034,151.9
2022-01-29T01:58:03,42.805,6.029,0.004,-0.019,0.024,107.0,104.0,102.0,13.4,1505.2,329.4,-0.8,1.8,2471.559,13.28,0.019,168.1
2022-01-29T02:04:03,42.805,6.029,0.027,-0.021,-0.021,106.0,106.0,103.0,13.4,1505.2,325.7,-0.8,1.8,2471.403,13.28,0.034,127.9
2022-01-29T02:07:03,42.805,6.029,0.04,-0.026,-0.01,106.0,104.0,103.0,13.3,1505.2,328.9,-0.8,1.8,2471.566,13.28,0.047,123.0
2022-01-29T02:10:03,42.805,6.029,0.022,-0.03,-0.022,105.0,103.0,102.0,13.4,1505.2,329.0,-0.8,1.8,2471.649,13.28,0.037,143.7
2022-01-29T02:13:03,42.805,6.029,0.0,-0.026,-0.022,105.0,105.0,103.0,13.4,1505.2,325.6,-0.7,1.8,2471.937,13.28,0.026,180.0
2022-01-29T02:16:03,42.805,6.029,0.024,-0.014,0.003,104.0,105.0,103.0,13.4,1505.2,328.7,-0.8,1.8,2471.375,13.28,0.027,120.3
2022-01-29T02:19:03,42.805,6.029,0.019,-0.029,0.022,104.0,105.0,103.0,13.3,1505.2,330.7,-0.7,1.8,2470.804,13.28,0.034,146.8
2022-01-29T02:22:03,42.805,6.029,0.033,-0.025,-0.012,105.0,103.0,103.0,13.4,1505.2,328.7,-0.8,1.8,2470.104,13.28,0.041,127.1
2022-01-29T02:25:03,42.805,6.029,0.007,-0.031,-0.007,105.0,103.0,103.0,13.4,1505.2,329.6,-0.7,1.8,2470.291,13.28,0.031,167.3
2022-01-29T02:28:03,42.805,6.029,0.021,-0.001,-0.026,104.0,104.0,103.0,13.4,1505.2,331.4,-0.7,1.8,2470.458,13.28,0.021,92.7
2022-01-29T02:31:03,42.805,6.029,-0.004,-0.033,-0.036,104.0,104.0,103.0,13.3,1505.2,327.9,-0.8,1.8,2470.427,13.28,0.033,186.9
2022-01-29T02:34:03,42.805,6.029,0.01,-0.015,-0.005,106.0,105.0,102.0,13.3,1505.2,328.4,-0.8,1.8,2470.343,13.28,0.018,146.3
2022-01-29T02:37:03,42.805,6.029,0.025,-0.037,0.004,104.0,105.0,103.0,13.4,1505.2,327.2,-0.7,1.8,2470.295,13.28,0.044,146.0
2022-01-29T02:40:03,42.805,6.029,0.026,-0.017,0.005,106.0,104.0,103.0,13.4,1505.2,323.3,-0.7,1.8,2470.443,13.28,0.031,123.2
2022-01-29T02:43:03,42.805,6.029,0.041,-0.032,-0.031,105.0,106.0,102.0,13.4,1505.2,325.4,-0.7,1.8,2470.703,13.28,0.052,128.0
2022-01-29T02:46:03,42.805,6.029,0.028,-0.021,-0.016,105.0,105.0,103.0,13.4,1505.2,325.8,-0.8,1.8,2470.862,13.28,0.035,126.9
2022-01-29T02:49:03,42.805,6.029,0.028,-0.028,-0.038,106.0,104.0,103.0,13.3,1505.2,326.4,-0.8,1.8,2470.91,13.28,0.039,135.0
2022-01-29T02:52:03,42.805,6.029,0.023,-0.023,-0.035,105.0,104.0,103.0,13.4,1505.2,326.7,-0.7,1.8,2471.069,13.28,0.032,135.0
2022-01-29T02:55:03,42.805,6.029,0.009,-0.02,-0.007,105.0,105.0,104.0,13.4,1505.2,328.9,-0.8,1.8,2470.959,13.28,0.021,155.8
2022-01-29T02:58:03,42.805,6.029,0.007,-0.008,0.006,105.0,105.0,104.0,13.3,1505.2,329.0,-0.8,1.8,2470.761,13.28,0.01,138.8
2022-01-29T03:04:03,42.805,6.029,0.012,-0.011,-0.022,107.0,104.0,102.0,13.4,1505.2,330.0,-0.8,1.8,2470.54,13.28,0.016,132.5
2022-01-29T03:07:03,42.805,6.029,-0.003,-0.029,0.0,106.0,105.0,103.0,13.4,1505.2,325.1,-0.8,1.8,2470.44,13.28,0.029,185.9
2022-01-29T03:10:03,42.805,6.029,0.03,-0.026,-0.01,106.0,105.0,103.0,13.3,1505.2,325.1,-0.7,1.8,2470.315,13.28,0.039,130.9
2022-01-29T03:13:03,42.805,6.029,-0.006,-0.022,-0.004,105.0,105.0,103.0,13.4,1505.2,324.3,-0.7,1.8,2470.353,13.28,0.022,195.3
2022-01-29T03:16:03,42.805,6.029,0.014,-0.031,-0.006,106.0,104.0,103.0,13.3,1505.2,326.0,-0.7,1.8,2470.392,13.28,0.034,155.7
2022-01-29T03:19:03,42.805,6.029,0.025,-0.041,-0.002,106.0,106.0,103.0,13.4,1505.2,327.2,-0.8,1.8,2470.416,13.28,0.048,148.6
2022-01-29T03:22:03,42.805,6.029,0.017,-0.033,0.001,105.0,106.0,102.0,13.4,1505.2,332.0,-0.8,1.8,2470.424,13.28,0.037,152.7
2022-01-29T03:25:03,42.805,6.029,0.006,-0.025,-0.02,105.0,106.0,104.0,13.4,1505.2,329.7,-0.8,1.8,2470.43,13.28,0.025,166.5
2022-01-29T03:28:03,42.805,6.029,0.011,-0.019,0.0,106.0,104.0,103.0,13.4,1505.2,328.8,-0.8,1.9,2470.386,13.28,0.021,149.9
2022-01-29T03:31:03,42.805,6.029,0.017,-0.022,-0.009,104.0,105.0,103.0,13.4,1505.2,325.9,-0.8,1.8,2470.456,13.28,0.027,142.3
2022-01-29T03:34:03,42.805,6.029,-0.01,-0.034,-0.032,106.0,104.0,104.0,13.4,1505.2,328.4,-0.7,1.8,2470.542,13.28,0.035,196.4
2022-01-29T03:37:03,42.805,6.029,-0.003,-0.028,-0.006,105.0,105.0,103.0,13.3,1505.2,324.0,-0.7,1.8,2470.535,13.28,0.028,186.1
2022-01-29T03:40:03,42.805,6.029,0.015,-0.013,-0.001,106.0,105.0,103.0,13.4,1505.2,325.3,-0.8,1.8,2470.541,13.28,0.019,130.9
2022-01-29T03:43:03,42.805,6.029,0.03,-0.028,-0.001,104.0,105.0,103.0,13.4,1505.2,325.9,-0.7,1.8,2470.559,13.28,0.041,133.0
2022-01-29T03:46:03,42.805,6.029,0.01,-0.033,-0.039,105.0,105.0,102.0,13.4,1505.2,325.5,-0.7,1.8,2470.586,13.28,0.034,163.1
2022-01-29T03:49:03,42.805,6.029,0.028,-0.039,-0.011,105.0,106.0,103.0,13.4,1505.2,325.1,-0.8,1.8,2470.576,13.28,0.048,144.3
2022-01-29T03:52:03,42.805,6.029,0.006,-0.026,-0.022,104.0,105.0,104.0,13.4,1505.2,329.5,-0.7,1.8,2470.606,13.28,0.026,167.0
2022-01-29T03:55:03,42.805,6.029,0.005,-0.022,-0.02,104.0,105.0,102.0,13.3,1505.2,326.9,-0.8,1.8,2470.576,13.28,0.022,167.2
2022-01-29T03:58:03,42.805,6.029,0.028,-0.036,-0.006,106.0,103.0,102.0,13.3,1505.2,324.0,-0.8,1.8,2470.593,13.28,0.045,142.1
2022-01-29T04:04:03,42.805,6.029,0.009,-0.013,-0.024,105.0,105.0,102.0,13.4,1505.2,329.7,-0.8,1.8,2470.642,13.28,0.015,145.3
2022-01-29T04:07:03,42.805,6.029,0.0,-0.034,-0.008,107.0,105.0,102.0,13.3,1505.2,328.1,-0.8,1.8,2470.608,13.28,0.034,180.0
2022-01-29T04:10:03,42.805,6.029,0.002,-0.028,-0.016,106.0,104.0,103.0,13.4,1505.2,330.2,-0.7,1.8,2470.673,13.28,0.028,175.9
2022-01-29T04:13:03,42.805,6.029,0.011,-0.028,-0.023,106.0,105.0,102.0,13.4,1505.2,325.6,-0.7,1.8,2470.647,13.28,0.03,158.6
2022-01-29T04:16:03,42.805,6.029,0.009,-0.028,-0.033,105.0,105.0,103.0,13.4,1505.2,326.6,-0.8,1.8,2470.636,13.28,0.029,162.2
2022-01-29T04:19:03,42.805,6.029,0.008,-0.035,-0.016,103.0,106.0,104.0,13.3,1505.2,326.0,-0.8,1.8,2470.626,13.28,0.035,167.1
2022-01-29T04:22:03,42.805,6.029,0.012,-0.023,-0.005,107.0,104.0,103.0,13.4,1505.2,329.5,-0.7,1.8,2470.655,13.28,0.025,152.4
2022-01-29T04:25:03,42.805,6.029,0.03,-0.029,-0.016,105.0,104.0,103.0,13.4,1505.2,324.1,-0.8,1.8,2470.646,13.28,0.041,134.0
2022-01-29T04:28:03,42.805,6.029,0.015,-0.018,-0.036,105.0,105.0,102.0,13.3,1505.2,325.4,-0.7,1.8,2470.681,13.28,0.023,140.2
2022-01-29T04:31:03,42.805,6.029,0.011,-0.033,-0.009,105.0,104.0,102.0,13.4,1505.2,326.8,-0.7,1.8,2470.63,13.28,0.034,161.6
2022-01-29T04:34:03,42.805,6.029,0.001,-0.03,-0.005,105.0,105.0,102.0,13.4,1505.2,330.1,-0.7,1.8,2470.679,13.28,0.03,178.1
2022-01-29T04:37:03,42.805,6.029,-0.005,-0.026,-0.009,106.0,103.0,102.0,13.4,1505.2,331.2,-0.8,1.8,2470.647,13.28,0.026,190.9
2022-01-29T04:40:03,42.805,6.029,-0.011,-0.037,-0.005,104.0,106.0,103.0,13.4,1505.2,328.4,-0.8,1.8,2470.65,13.28,0.038,196.6
2022-01-29T04:43:03,42.805,6.029,0.002,-0.039,-0.003,105.0,104.0,103.0,13.4,1505.2,326.9,-0.7,1.8,2470.648,13.28,0.039,177.1
2022-01-29T04:46:03,42.805,6.029,0.005,-0.019,0.012,104.0,105.0,103.0,13.3,1505.2,326.9,-0.8,1.8,2470.641,13.28,0.019,165.3
2022-01-29T04:49:03,42.805,6.029,-0.003,-0.033,-0.027,106.0,105.0,103.0,13.4,1505.2,329.7,-0.7,1.9,2470.685,13.28,0.033,185.2
2022-01-29T04:52:03,42.805,6.029,0.002,-0.028,-0.033,104.0,105.0,103.0,13.3,1505.2,325.9,-0.8,1.8,2470.665,13.28,0.028,175.9
2022-01-29T04:55:03,42.805,6.029,0.024,-0.032,0.012,104.0,104.0,103.0,13.4,1505.2,326.6,-0.8,1.9,2470.681,13.28,0.04,143.1
2022-01-29T04:58:03,42.805,6.029,0.005,-0.042,0.0,106.0,105.0,103.0,13.4,1505.2,326.2,-0.7,1.8,2470.665,13.28,0.042,173.2
2022-01-29T05:04:03,42.805,6.029,0.013,-0.028,0.001,105.0,104.0,103.0,13.4,1505.2,327.8,-0.7,1.8,2470.661,13.28,0.03,155.1
2022-01-29T05:07:03,42.805,6.029,-0.027,-0.015,0.007,107.0,104.0,102.0,13.4,1505.2,328.8,-0.8,1.8,2470.664,13.28,0.03,240.9
2022-01-29T05:10:03,42.805,6.029,0.004,-0.033,0.004,105.0,104.0,102.0,13.3,1505.2,328.8,-0.8,1.8,2470.62,13.28,0.033,173.1
2022-01-29T05:13:03,42.805,6.029,0.012,-0.029,-0.012,105.0,103.0,103.0,13.4,1505.2,327.4,-0.8,1.8,2470.642,13.28,0.031,157.5
2022-01-29T05:16:03,42.805,6.029,-0.014,-0.04,-0.008,105.0,103.0,103.0,13.3,1505.2,328.2,-0.8,1.8,2470.641,13.28,0.042,199.3
2022-01-29T05:19:03,42.805,6.029,0.024,-0.027,-0.025,105.0,106.0,103.0,13.3,1505.2,324.8,-0.8,1.8,2470.648,13.28,0.036,138.4
2022-01-29T05:22:03,42.805,6.029,0.02,-0.045,-0.024,105.0,104.0,103.0,13.4,1505.2,330.9,-0.7,1.8,2470.628,13.28,0.049,156.0
2022-01-29T05:25:03,42.805,6.029,0.012,-0.024,-0.04,104.0,105.0,102.0,13.3,1505.2,331.3,-0.7,1.8,2470.617,13.28,0.026,153.4
2022-01-29T05:28:03,42.805,6.029,0.025,-0.046,-0.04,104.0,104.0,102.0,13.4,1505.2,326.2,-0.7,1.8,2470.586,13.28,0.052,151.5
2022-01-29T05:31:03,42.805,6.029,0.007,-0.019,-0.005,105.0,105.0,103.0,13.4,1505.2,324.2,-0.8,1.8,2470.6,13.28,0.02,159.8
2022-01-29T05:34:03,42.805,6.029,0.025,-0.043,-0.006,105.0,105.0,104.0,13.3,1505.2,327.1,-0.7,1.8,2470.586,13.28,0.049,149.8
2022-01-29T05:37:03,42.805,6.029,0.005,-0.03,-0.031,107.0,105.0,104.0,13.3,1505.2,327.4,-0.8,1.8,2470.587,13.28,0.03,170.5
2022-01-29T05:40:03,42.805,6.029,0.0,-0.026,-0.02,107.0,105.0,103.0,13.3,1505.2,330.2,-0.7,1.8,2470.584,13.28,0.026,180.0
2022-01-29T05:43:03,42.805,6.029,0.007,-0.032,-0.004,106.0,105.0,104.0,13.4,1505.2,327.2,-0.7,1.8,2470.579,13.28,0.032,167.7
2022-01-29T05:46:03,42.805,6.029,-0.017,-0.021,-0.035,104.0,105.0,102.0,13.3,1505.2,329.8,-0.8,1.8,2470.57,13.28,0.027,219.0
2022-01-29T05:49:03,42.805,6.029,0.021,-0.032,-0.03,105.0,104.0,102.0,13.4,1505.2,328.7,-0.7,1.8,2470.586,13.28,0.038,146.7
2022-01-29T05:52:03,42.805,6.029,0.011,-0.047,-0.034,105.0,105.0,102.0,13.3,1505.2,326.5,-0.7,1.8,2470.524,13.28,0.048,166.8
2022-01-29T05:55:03,42.805,6.029,-0.014,-0.045,-0.005,105.0,105.0,103.0,13.4,1505.2,329.1,-0.8,1.8,2470.609,13.28,0.047,197.3
2022-01-29T05:58:03,42.805,6.029,0.019,-0.013,-0.001,106.0,105.0,104.0,13.4,1505.2,328.7,-0.7,1.8,2470.765,13.28,0.023,124.4
2022-01-29T06:04:03,42.805,6.029,-0.011,-0.028,-0.024,106.0,105.0,103.0,13.3,1505.2,328.4,-0.8,1.8,2470.938,13.28,0.03,201.4
2022-01-29T06:07:03,42.805,6.029,0.006,-0.022,-0.011,106.0,104.0,103.0,13.4,1505.2,325.9,-0.8,1.8,2471.124,13.28,0.022,164.7
2022-01-29T06:10:03,42.805,6.029,0.012,-0.026,-0.013,106.0,105.0,104.0,13.3,1505.2,328.3,-0.7,1.8,2470.714,13.28,0.028,155.2
2022-01-29T06:13:03,42.805,6.029,-0.019,-0.032,-0.026,106.0,106.0,103.0,13.4,1505.2,329.6,-0.7,1.8,2470.482,13.28,0.037,210.7
2022-01-29T06:16:03,42.805,6.029,0.007,-0.026,0.016,105.0,105.0,102.0,13.4,1505.2,326.2,-0.8,1.8,2470.464,13.28,0.026,164.9
2022-01-29T06:19:03,42.805,6.029,0.006,-0.028,-0.028,105.0,104.0,102.0,13.4,1505.2,326.4,-0.8,1.8,2470.484,13.28,0.028,167.9
2022-01-29T06:22:03,42.805,6.029,-0.004,-0.024,-0.008,104.0,104.0,102.0,13.3,1505.2,328.1,-0.8,1.8,2470.486,13.28,0.024,189.5
2022-01-29T06:25:03,42.805,6.029,-0.003,-0.048,-0.011,105.0,105.0,102.0,13.4,1505.2,330.2,-0.8,1.8,2470.523,13.28,0.048,183.6
2022-01-29T06:28:03,42.805,6.029,-0.012,-0.033,-0.018,106.0,106.0,102.0,13.4,1505.2,330.5,-0.8,1.8,2470.722,13.28,0.035,200.0
2022-01-29T06:31:03,42.805,6.029,0.0,-0.019,-0.022,105.0,104.0,103.0,13.4,1505.2,328.2,-0.8,1.8,2471.023,13.28,0.019,180.0
2022-01-29T06:34:03,42.805,6.029,0.009,-0.07,-0.057,105.0,104.0,102.0,13.3,1505.2,329.5,-0.8,1.8,2471.394,13.28,0.07,172.7
2022-01-29T06:37:03,42.805,6.029,-0.004,-0.053,-0.025,104.0,105.0,103.0,13.3,1505.2,330.9,-0.8,1.8,2471.607,13.28,0.053,184.3
2022-01-29T06:40:03,42.805,6.029,-0.013,-0.031,-0.017,105.0,104.0,103.0,13.4,1505.2,327.4,-0.7,1.8,2471.813,13.28,0.033,202.7
2022-01-29T06:43:03,42.805,6.029,-0.035,-0.017,-0.032,104.0,103.0,101.0,13.4,1505.2,325.8,-0.7,1.9,2471.817,13.28,0.038,244.1
2022-01-29T06:46:03,42.805,6.029,-0.023,-0.036,-0.015,104.0,103.0,103.0,13.4,1505.2,328.0,-0.8,1.8,2471.795,13.28,0.042,212.6
2022-01-29T06:49:03,42.805,6.029,-0.013,-0.021,-0.027,103.0,104.0,101.0,13.4,1505.2,329.7,-0.8,1.8,2471.281,13.28,0.024,211.8
2022-01-29T06:52:03,42.805,6.029,-0.018,-0.039,-0.04,104.0,103.0,101.0,13.3,1505.2,328.8,-0.7,1.8,2471.484,13.28,0.042,204.8
2022-01-29T06:55:03,42.805,6.029,-0.039,-0.027,-0.014,105.0,102.0,101.0,13.3,1505.2,329.7,-0.7,1.8,2471.61,13.28,0.047,235.3
2022-01-29T06:58:03,42.805,6.029,-0.027,-0.014,-0.014,104.0,103.0,102.0,13.4,1505.2,329.7,-0.7,1.8,2471.658,13.28,0.03,242.6
2022-01-29T07:04:03,42.805,6.029,-0.014,-0.029,-0.007,104.0,104.0,102.0,13.4,1505.2,326.5,-0.8,1.8,2471.741,13.28,0.032,205.8
2022-01-29T07:07:03,42.805,6.029,-0.014,-0.003,-0.01,103.0,104.0,101.0,13.4,1505.2,329.9,-0.7,1.8,2471.68,13.28,0.014,257.9
2022-01-29T07:10:03,42.805,6.029,-0.019,-0.018,-0.016,103.0,103.0,103.0,13.3,1505.2,327.4,-0.8,1.8,2471.76,13.28,0.026,226.5
2022-01-29T07:13:03,42.805,6.029,0.01,-0.03,-0.016,103.0,102.0,101.0,13.4,1505.2,324.4,-0.8,1.8,2471.739,13.28,0.031,161.6
2022-01-29T07:16:03,42.805,6.029,0.0,-0.032,-0.02,103.0,105.0,102.0,13.4,1505.2,328.5,-0.8,1.8,2471.772,13.28,0.032,180.0
2022-01-29T07:19:03,42.805,6.029,-0.021,-0.025,-0.023,103.0,103.0,101.0,13.4,1505.2,329.1,-0.7,1.8,2471.689,13.28,0.032,220.0
2022-01-29T07:22:03,42.805,6.029,-0.018,-0.012,-0.014,104.0,102.0,104.0,13.4,1505.2,329.0,-0.7,1.7,2471.649,13.28,0.021,236.3
2022-01-29T07:25:03,42.805,6.029,-0.008,-0.033,0.016,102.0,103.0,102.0,13.4,1505.2,324.2,-0.8,1.8,2470.457,13.28,0.033,193.6
2022-01-29T07:28:03,42.805,6.029,0.004,-0.043,-0.008,102.0,102.0,102.0,13.4,1505.2,325.6,-0.7,1.8,2470.233,13.28,0.043,174.7
2022-01-29T07:31:03,42.805,6.029,-0.014,-0.036,-0.046,102.0,102.0,102.0,13.3,1505.2,324.4,-0.8,1.8,2470.503,13.28,0.038,201.2
2022-01-29T07:34:03,42.805,6.029,-0.019,-0.016,-0.003,103.0,101.0,101.0,13.3,1505.2,327.3,-0.7,1.8,2470.859,13.28,0.024,229.9
2022-01-29T07:37:03,42.805,6.029,0.01,-0.025,-0.011,102.0,102.0,101.0,13.4,1505.2,324.7,-0.8,1.8,2470.462,13.28,0.026,158.2
2022-01-29T07:40:03,42.805,6.029,-0.024,-0.04,-0.033,103.0,102.0,101.0,13.3,1505.2,326.5,-0.7,1.8,2470.442,13.28,0.046,211.0
2022-01-29T07:43:03,42.805,6.029,-0.013,-0.035,-0.044,103.0,103.0,100.0,13.3,1505.2,329.0,-0.8,1.8,2470.599,13.28,0.037,200.4
2022-01-29T07:46:03,42.805,6.029,-0.022,-0.041,-0.029,104.0,101.0,101.0,13.3,1505.2,329.5,-0.8,1.8,2470.644,13.28,0.046,208.2
2022-01-29T07:49:03,42.805,6.029,-0.014,-0.033,-0.046,103.0,101.0,102.0,13.3,1505.2,327.1,-0.7,1.8,2470.654,13.28,0.035,203.0
2022-01-29T07:52:03,42.805,6.029,-0.021,-0.015,-0.02,102.0,102.0,102.0,13.4,1505.2,330.7,-0.7,1.8,2470.426,13.28,0.025,234.5
2022-01-29T07:55:03,42.805,6.029,-0.013,-0.035,-0.026,102.0,103.0,101.0,13.4,1505.2,330.8,-0.8,1.9,2470.356,13.28,0.037,200.4
2022-01-29T07:58:03,42.805,6.029,-0.012,-0.022,0.01,103.0,101.0,103.0,13.4,1505.2,329.5,-0.8,1.9,2470.399,13.28,0.025,208.6
2022-01-29T08:01:03,42.805,6.029,-0.03,-0.021,-0.018,103.0,102.0,102.0,13.4,1505.2,328.9,-0.8,1.8,2470.442,13.28,0.036,235.0
2022-01-29T08:04:03,42.805,6.029,-0.024,-0.035,-0.016,103.0,102.0,102.0,13.4,1505.2,331.1,-0.8,1.8,2470.457,13.28,0.042,214.4
2022-01-29T08:07:03,42.805,6.029,-0.019,-0.025,-0.04,102.0,103.0,101.0,13.4,1505.2,327.0,-0.7,1.9,2470.453,13.28,0.031,217.2
2022-01-29T08:10:03,42.805,6.029,0.003,-0.033,-0.042,102.0,101.0,102.0,13.3,1505.2,329.0,-0.8,1.8,2470.461,13.28,0.033,174.8
2022-01-29T08:13:03,42.805,6.029,-0.012,-0.031,-0.039,103.0,102.0,101.0,13.4,1505.2,325.5,-0.8,1.8,2470.472,13.28,0.033,201.2
2022-01-29T08:16:03,42.805,6.029,-0.003,-0.027,-0.027,104.0,103.0,101.0,13.4,1505.2,326.2,-0.7,1.8,2470.445,13.28,0.027,186.3
2022-01-29T08:19:03,42.805,6.029,-0.008,-0.013,0.03,103.0,101.0,102.0,13.4,1505.2,329.3,-0.8,1.8,2470.49,13.29,0.015,211.6
2022-01-29T08:22:03,42.805,6.029,-0.012,-0.037,-0.015,103.0,103.0,100.0,13.4,1505.2,329.2,-0.7,1.8,2470.539,13.29,0.038,198.0
2022-01-29T08:25:03,42.805,6.029,-0.029,-0.029,-0.036,103.0,102.0,102.0,13.4,1505.2,328.4,-0.8,1.8,2470.594,13.28,0.041,225.0
2022-01-29T08:28:03,42.805,6.029,0.009,-0.032,0.007,104.0,102.0,101.0,13.4,1505.2,327.3,-0.8,1.8,2470.677,13.29,0.033,164.3
2022-01-29T08:31:03,42.805,6.029,-0.004,-0.023,0.0,104.0,102.0,101.0,13.4,1505.2,324.9,-0.8,1.9,2470.449,13.29,0.023,189.9
2022-01-29T08:34:03,42.805,6.029,0.004,-0.014,-0.03,105.0,102.0,101.0,13.3,1505.2,326.5,-0.7,1.8,2470.474,13.29,0.014,164.1
2022-01-29T08:37:03,42.805,6.029,-0.031,-0.031,-0.032,102.0,103.0,103.0,13.3,1505.2,331.2,-0.8,1.8,2470.566,13.28,0.043,225.0
2022-01-29T08:40:03,42.805,6.029,-0.014,-0.018,0.002,103.0,102.0,102.0,13.3,1505.2,330.6,-0.7,1.8,2470.501,13.29,0.022,217.9
2022-01-29T08:43:03,42.805,6.029,-0.002,-0.024,-0.029,104.0,103.0,101.0,13.4,1505.2,332.1,-0.7,1.8,2470.463,13.29,0.024,184.8
2022-01-29T08:46:03,42.805,6.029,-0.025,0.003,-0.007,104.0,103.0,101.0,13.4,1505.2,331.0,-0.8,1.8,2470.489,13.29,0.025,276.8
2022-01-29T08:49:03,42.805,6.029,-0.008,-0.018,-0.017,104.0,103.0,102.0,13.3,1505.2,329.5,-0.8,1.8,2470.479,13.29,0.019,204.0
2022-01-29T08:52:03,42.805,6.029,-0.028,-0.029,-0.045,103.0,103.0,102.0,13.4,1505.2,327.6,-0.8,1.8,2470.448,13.29,0.04,224.0
2022-01-29T08:55:03,42.805,6.029,-0.005,0.006,0.002,103.0,102.0,101.0,13.4,1505.2,330.2,-0.8,1.8,2470.438,13.29,0.007,320.2
2022-01-29T08:58:03,42.805,6.029,0.0,-0.02,-0.032,104.0,103.0,102.0,13.3,1505.2,323.9,-0.8,1.9,2470.521,13.29,0.02,180.0
2022-01-29T09:04:03,42.805,6.029,0.0,-0.037,0.007,104.0,105.0,102.0,13.3,1505.2,329.4,-0.7,1.8,2470.522,13.28,0.037,180.0
2022-01-29T09:07:03,42.805,6.029,-0.016,-0.024,-0.003,103.0,102.0,102.0,13.4,1505.2,331.0,-0.7,1.8,2470.901,13.28,0.028,213.7
2022-01-29T09:10:03,42.805,6.029,-0.005,-0.017,-0.017,104.0,102.0,101.0,13.4,1505.2,329.0,-0.8,1.8,2471.476,13.28,0.017,196.4
2022-01-29T09:13:03,42.805,6.029,0.002,-0.042,0.001,104.0,102.0,101.0,13.4,1505.2,327.0,-0.8,1.8,2470.782,13.28,0.042,177.3
2022-01-29T09:16:03,42.805,6.029,-0.009,-0.029,-0.01,104.0,103.0,101.0,13.3,1505.2,329.6,-0.7,1.8,2470.339,13.29,0.03,197.2
2022-01-29T09:19:03,42.805,6.029,-0.025,-0.035,-0.015,104.0,102.0,102.0,13.3,1505.2,325.7,-0.8,1.8,2470.399,13.29,0.043,215.5
2022-01-29T09:22:03,42.805,6.029,-0.026,-0.025,-0.003,104.0,103.0,101.0,13.4,1505.2,325.3,-0.8,1.8,2470.462,13.29,0.036,226.1
2022-01-29T09:25:03,42.805,6.029,-0.027,-0.034,0.002,102.0,103.0,103.0,13.4,1505.2,327.5,-0.8,1.8,2470.575,13.29,0.043,218.5
2022-01-29T09:28:03,42.805,6.029,0.0,-0.032,-0.026,104.0,102.0,100.0,13.3,1505.2,323.1,-0.7,1.8,2470.754,13.29,0.032,180.0
2022-01-29T09:31:03,42.805,6.029,-0.004,-0.018,-0.016,103.0,103.0,101.0,13.4,1505.2,324.6,-0.7,1.8,2470.966,13.29,0.018,192.5
2022-01-29T09:34:03,42.805,6.029,-0.015,-0.032,-0.007,103.0,104.0,101.0,13.4,1505.2,328.6,-0.8,1.8,2471.09,13.29,0.035,205.1
2022-01-29T09:37:03,42.805,6.029,-0.025,-0.008,0.004,103.0,102.0,101.0,13.4,1505.2,330.1,-0.8,1.8,2471.214,13.29,0.026,252.3
2022-01-29T09:40:03,42.805,6.029,-0.012,-0.035,-0.023,103.0,102.0,100.0,13.4,1505.2,329.4,-0.7,1.8,2471.157,13.29,0.037,198.9
2022-01-29T09:43:03,42.805,6.029,-0.017,-0.02,-0.009,102.0,103.0,101.0,13.4,1505.2,331.2,-0.7,1.9,2471.146,13.29,0.026,220.4
2022-01-29T09:46:03,42.805,6.029,-0.028,-0.019,-0.033,103.0,103.0,100.0,13.4,1505.2,324.6,-0.8,1.8,2471.103,13.29,0.033,235.8
2022-01-29T09:49:03,42.805,6.029,0.001,-0.03,-0.05,103.0,103.0,102.0,13.4,1505.2,325.9,-0.8,1.8,2471.167,13.29,0.03,178.1